Regional Weather Roundup
Issued by NWS

Home | Current Version | Previous Version | Text Only | Print | Product List | Glossary Off
Versions: 1 2 3 4 5 6 7 8 9 10 11 12 13 14 15 16 17 18 19 20 21 22 23 24 25 26 27 28 29 30 31 32 33 34 35 36 37 38 39 40 41 42 43 44 45 46 47 48 49 50

119
ASUS43 KLOT 212104
RWRIL

ILLINOIS REGIONAL WEATHER ROUNDUP
NATIONAL WEATHER SERVICE CHICAGO/ROMEOVILLE IL
400 PM CDT MON AUG 21 2017

NOTE: "FAIR" INDICATES FEW OR NO CLOUDS BELOW 12,000 FEET WITH NO
SIGNIFICANT WEATHER AND/OR OBSTRUCTIONS TO VISIBILITY.

* THESE STATIONS ARE NOT UNDER NWS QUALITY CONTROL. THEY ALSO MAY NOT
  REPORT WEATHER SUCH AS PRECIPITATION OR FOG.

ILZ001-002-007-009-015-016-024-212200-
NORTHWEST ILLINOIS

CITY           SKY/WX    TMP DP  RH WIND       PRES   REMARKS
MOLINE         MOSUNNY   82  69  64 SW12      29.96F HX  85
STERLING*      CLOUDY    79  72  79 SW7       29.98F HX  82
SAVANNA*       CLOUDY    78  68  72 SW5       29.99R HX  80
$$

ILZ003-004-008-010-011-017-018-212200-
NORTH CENTRAL ILLINOIS

CITY           SKY/WX    TMP DP  RH WIND       PRES   REMARKS
ROCKFORD       CLOUDY    83  69  62 S13       29.97F HX  86
FREEPORT*      CLOUDY    79  68  68 S12       29.97F HX  82
ROCHELLE*      PTSUNNY   80  69  70 S9        29.99F HX  82
$$

ILZ005-006-012>014-019>023-212200-
NORTHEAST ILLINOIS

CITY           SKY/WX    TMP DP  RH WIND       PRES   REMARKS
CHICAGO-OHARE  CLOUDY    85  69  58 S6        29.98R HX  89
CHICAGO-MIDWAY CLOUDY    87  69  54 SE7       29.98S HX  91
AURORA         CLOUDY    82  71  69 SE9       30.00S HX  86
LANSING*       PTSUNNY   83  69  62 SE6       30.00F HX  87
JOLIET*        CLOUDY    82  75  80 SE7       30.00S HX  88
WAUKEGAN       CLOUDY    81  73  76 SE9       29.96F HX  86
DUPAGE AIRPORT CLOUDY    82  74  76 S9        29.99R HX  88
KANKAKEE*      SUNNY     84  72  68 S6        30.02S HX  89
WHEELING       CLOUDY    81  75  82 SE7       29.99S HX  87
MORRIS*        CLOUDY    81  73  77 SE8       29.99F HX  85
NORTHERLY ISL    N/A     79  72  79 SE9         N/A  HX  82
$$

LMZ740>746-212200-
SOUTHERN LAKE MICHIGAN

STATION/POSITION SKY/WX   TEMP    WIND        PRES    VSBY  WAVE
                          AIR SEA DIR/SP/G                  HT/PER
                          (F)     (DEG/KT/KT) (MB)    (MI)  (FT/S)
SOUTHERN BUOY              73 72  190/ 10/ 12 1016.0          1/ 4
WILMETTE HARBOR            75 75  130/  8/ 10   N/A           1/ 2
HARRISON CRIB              77     140/ 11/ 12   N/A
CALUMET HARBOR             80     100/  7/  9 1015.3R
BURNS HARBOR               81      80/  6/ 13 1016.6R
MICHIGAN CITY              76      30/  4/  5   N/A
MICHIGAN CITY 6N           76 75   90/  4/  6   N/A           1
ST. JOSEPH                 77 75   50/  4/  6 1015.3F         1
$$

ILZ025>027-034>036-040-047-049-050-058-095>099-212200-
WEST-CENTRAL ILLINOIS

CITY           SKY/WX    TMP DP  RH WIND       PRES   REMARKS
QUINCY         PTSUNNY   76  71  85 S13       30.00F
GALESBURG*     CLOUDY    75  70  85 S12G17    30.00F
MACOMB*        CLOUDY    75  71  88 S13       30.00F
$$

ILZ028>032-037-038-041>044-048-051>054-059>061-212200-
CENTRAL ILLINOIS

CITY           SKY/WX    TMP DP  RH WIND       PRES   REMARKS
BLOOMINGTON    CLOUDY    79  70  74 S14       30.04F HX  82
DECATUR        MOSUNNY   85  68  56 S10       30.04F HX  88
PEORIA         CLOUDY    77  72  84 SW9       30.02R
LACON*         CLOUDY    77  71  82 SW10      29.99F
LINCOLN*       PTSUNNY   84  71  65 S9        30.02F HX  89
SPRINGFIELD    CLOUDY    84  72  67 S10       30.04F HX  89
TAYLORVILLE    NOT AVBL
$$

ILZ033-039-045-046-055>057-062-063-212200-
EAST-CENTRAL ILLINOIS

CITY           SKY/WX    TMP DP  RH WIND       PRES   REMARKS
CHAMPAIGN      MOSUNNY   88  67  49 SE8       30.05F HX  91
RANTOUL*       CLOUDY    84  71  64 S9        30.04F HX  89
MATTOON        MOSUNNY   81  74  79 SE5       30.04F HX  86
PARIS*         MOSUNNY   85  74  68 S10       30.06F HX  92
$$

ILZ079-100>102-212200-
SOUTHWEST ILLINOIS

CITY           SKY/WX    TMP DP  RH WIND       PRES   REMARKS
ALTON          CLOUDY    81  73  78 E9        30.04F HX  85
BELLEVILLE     MOSUNNY   79  70  73 S10G24    30.04S THUNDER HX  81
CAHOKIA*       CLOUDY    88  63  43 SE8       30.02S HX  89
SPARTA*        CLOUDY    92  76  60 S12       30.04F HX 103
$$

ILZ064>066-069>071-074>076-080>082-084>086-088>090-092>094-212200-
SOUTH-CENTRAL ILLINOIS

CITY           SKY/WX    TMP DP  RH WIND       PRES   REMARKS
CARBONDALE     MOSUNNY   90  77  65 S8        30.04F HX 103
CAIRO*         SUNNY     91  78  67 S8        30.05F HX 105
EFFINGHAM*     CLOUDY    81  75  82 CALM      30.07F HX  86
MT. VERNON       N/A     90  77  65 SW12      30.03F HX 103
CENTRALIA*     MOSUNNY   93  78  61 S9        30.02F HX 107
SALEM*         CLOUDY    87  71  58 N9        30.05S HX  93
METROPOLIS*    HVY RAIN  92  76  60 S7        30.06F HX 104
$$

ILZ067-068-072-073-078-083-087-091-212200-
SOUTHEAST ILLINOIS

CITY           SKY/WX    TMP DP  RH WIND       PRES   REMARKS
LAWRENCEVILLE  LGT RAIN  73  73 100 CALM      30.11S FOG
FLORA*         TSTM      81  70  68 N14G28    30.06R HX  85
FAIRFIELD*     MOSUNNY   91  75  59 S7        30.03F HX 102
HARRISBURG*    SUNNY     93  75  56 SW8       30.04F HX 104
ROBINSON*      CLOUDY    71  70  96 S6        30.09F
CARMI*         SUNNY     89  79  71 S9        30.03F HX 104
$$

ABBREVIATIONS USED IN REMARKS
   TC - TEMPERATURE IN CELSIUS
  WCI - WIND CHILL INDEX
   HX - HEAT INDEX
  VSB - VISIBILITY
$$





USA.gov is the U.S. government's official web portal to all federal, state and local government web resources and services.